Location: Newark
(25.1987°N, 100.3705°W)
Time: 04:41:13
(UTC+00:00)

Hubble Space Telescope - Visible Passes

Search period start: 05 April 2020 00:00
Search period end: 15 April 2020 00:00
Orbit: 536 x 540 km, 28.5° (Epoch: 04 April)

Date Brightness Start Highest point End Pass type
(mag) Time Alt. Az. Time Alt. Az. Time Alt. Az.
05 Apr 1.3 02:05:57 10° SW 02:09:48 39° SSE 02:10:49 33° ESE visible
06 Apr 1.0 01:55:08 10° SW 01:59:08 50° SSE 02:01:14 25° E visible
06 Apr 3.8 03:36:13 10° W 03:36:35 12° W 03:36:35 12° W visible
07 Apr 0.8 01:44:24 10° WSW 01:48:28 64° SSE 01:51:32 17° E visible
07 Apr 3.3 03:25:39 10° W 03:26:54 19° W 03:26:54 19° W visible
08 Apr 0.7 01:33:42 10° WSW 01:37:49 78° SSE 01:41:46 11° ENE visible
08 Apr 2.8 03:15:04 10° W 03:17:06 27° WNW 03:17:06 27° WNW visible
09 Apr 0.8 01:23:03 10° WSW 01:27:10 87° NNW 01:31:18 10° ENE visible
09 Apr 2.2 03:04:30 10° W 03:07:15 37° NW 03:07:15 37° NW visible
10 Apr 1.6 02:53:54 10° WNW 02:57:19 47° NNW 02:57:19 47° NNW visible
11 Apr 1.2 02:43:18 10° WNW 02:47:20 53° N 02:47:20 53° N visible
12 Apr 1.1 02:32:41 10° WNW 02:36:45 56° N 02:37:19 50° NE visible
13 Apr 1.0 02:22:04 10° WNW 02:26:08 61° N 02:27:17 42° ENE visible
14 Apr 0.9 02:11:26 10° WNW 02:15:32 68° N 02:17:14 33° E visible
